Weather History for VTCH - July, 2013

Change the Weather History Date:

Thursday, July 11, 2013

  Actual Average Record
Temperature  
Mean Temperature 82 °F -  
Max Temperature 90 °F 89 °F - ()
Min Temperature 74 °F 74 °F - ()
Cooling Degree Days 17    
Growing Degree Days 32 (Base 50)    
Moisture  
Dew Point 72 °F    
Average Humidity 75    
Maximum Humidity 90    
Minimum Humidity 58    
Precipitation  
Precipitation 0.00 in 0.30 in - ()
Sea Level Pressure  
Sea Level Pressure 29.74 in    
Wind  
Wind Speed 1 mph ()    
Max Wind Speed 7 mph    
Max Gust Speed -    
Visibility 6.1 miles    
Events Rain    
T = Trace of Precipitation, MM = Missing Value Source: Averaged Metar Reports

Daily Weather History Graph

Daily Weather History Graph

Search for Another Location

Airport or City:

Trip Planner

Search our weather history database for the weather conditions in past years. The results will help you decide how hot, cold, wet, or windy it might be!

Date:

Astronomy

Jul. 11, 2013 Rise Set
Actual Time 5:57 AM ICT 7:10 PM ICT
Civil Twilight 5:32 AM ICT 7:34 PM ICT
Nautical Twilight 5:04 AM ICT 8:02 PM ICT
Astronomical Twilight 4:34 AM ICT 8:32 PM ICT
Moon 8:18 AM ICT (7/11) 9:06 PM ICT (7/11)
Length of Visible Light 14h 01m
Length of Day
13h 13m
Waxing Crescent, 8% of the Moon is Illuminated
Jul 11
Waxing Crescent
Jul 16
First Quarter
Jul 23
Full
Jul 30
Last Quarter
Aug 7
New

Hourly Weather History & Observations

Time (ICT) Temp. Heat Index Dew Point Humidity Pressure Visibility Wind Dir Wind Speed Gust Speed Precip Events Conditions
1:00 AM 79 °F - 72 °F 74% 29.72 in 6 mi Calm Calm - -   Partly Cloudy
4:00 AM 78 °F - 72 °F 78% 29.71 in 6 mi Calm Calm - -   Partly Cloudy
7:00 AM 77 °F - 74 °F 89% 29.74 in 6 mi Calm Calm - - Rain Light Rain
7:00 AM 75.2 °F - 69.8 °F 83% 29.74 in 6.2 mi Calm Calm - N/A   Overcast
8:00 AM 77.0 °F - 69.8 °F 78% 29.74 in 6.2 mi Calm Calm - N/A   Overcast
9:00 AM 78.8 °F - 69.8 °F 74% 29.77 in 6.2 mi Variable 2.3 mph - N/A   Mostly Cloudy
10:00 AM 82 °F - 73 °F 69% 29.76 in 7 mi Calm Calm - -   Overcast
10:00 AM 80.6 °F 83.9 °F 69.8 °F 70% 29.80 in 6.2 mi Variable 2.3 mph - N/A   Overcast
11:00 AM 82.4 °F 87.2 °F 71.6 °F 70% 29.77 in 6.2 mi NW 3.5 mph - N/A   Mostly Cloudy
12:00 PM 82.4 °F 86.3 °F 69.8 °F 66% 29.77 in 6.2 mi SW 3.5 mph - N/A   Overcast
1:00 PM 86 °F - 74 °F 61% 29.75 in 9 mi Calm Calm - -   Overcast
1:00 PM 84.2 °F 88.4 °F 69.8 °F 62% 29.77 in 6.2 mi Variable 2.3 mph - N/A   Overcast
2:00 PM 86.0 °F 90.4 °F 69.8 °F 58% 29.74 in 6.2 mi WSW 6.9 mph - N/A   Overcast
3:00 PM 82.4 °F 86.3 °F 69.8 °F 66% 29.74 in 3.7 mi SW 5.8 mph - N/A Rain Rain
4:00 PM 82 °F - 76 °F 79% 29.70 in 7 mi Calm Calm - - Rain Light Rain
4:00 PM 78.8 °F - 71.6 °F 78% 29.74 in 6.2 mi WSW 4.6 mph - N/A   Overcast
5:00 PM 77.0 °F - 71.6 °F 83% 29.71 in 5.0 mi South 2.3 mph - N/A Rain Rain
6:00 PM 78.8 °F - 73.4 °F 83% 29.71 in 6.2 mi WNW 3.5 mph - N/A   Overcast
7:00 PM 80 °F - 77 °F 89% 29.72 in 6 mi Calm Calm - - Rain Light Rain
7:00 PM 77.0 °F - 71.6 °F 83% 29.74 in 6.2 mi Calm Calm - N/A   Overcast
10:00 PM 78 °F - 76 °F 90% 29.79 in 5 mi Calm Calm - - Rain Light Rain